Temp
17 17 18 18 18 18 18 19 19 20 20 21 21 21 21 21 21 22 22 22 23 23 24 24 24 25 25 25 24 24 25 26 26 22 23 30 34 33 32 32 32 31 30 30 29 28 27 27 28 29 29 29 29 29 28 28 27 26 27 26 24 24 25 25 25 25 25 25 25 26 26 26 26 26 26 27 27 27 28 28 28 29 29 29 30 30 31 30
16 17 18 18 17 18 18 19 19 19 20 20 21 21 21 21 21 21 22 22 23 23 24 24 24 25 24 24 24 24 25 24 23 22 27 34 34 33 32 32 31 31 31 29 29 28 28 28 29 29 29 29 29 29 28 28 27 28 28 26 25 26 26 25 26 26 26 26 25 26 26 26 26 26 27 27 27 28 28 28 28 28 28 29 29 30 31 30
16 16 17 17 18 18 18 18 19 19 20 20 20 21 21 21 21 21 21 22 22 23 23 24 25 24 24 24 24 25 23 21 24 29 33 35 34 34 33 32 31 31 31 30 30 30 29 29 29 30 29 29 30 29 29 29 28 29 29 26 26 27 26 26 26 26 26 26 26 26 26 26 26 27 27 27 27 28 28 27 28 28 28 29 29 29 30 30
16 16 17 17 18 18 18 19 19 19 20 20 20 21 21 21 21 21 21 22 22 23 23 24 24 24 24 24 24 24 21 23 30 34 34 35 35 35 34 33 32 31 31 31 31 30 30 30 30 30 29 29 30 30 30 29 29 30 29 27 27 27 26 26 26 27 27 27 27 26 26 27 26 26 27 27 27 28 28 28 28 28 28 29 29 29 30 29
16 16 16 17 17 18 19 19 19 19 20 20 20 21 21 21 21 21 21 21 22 23 23 24 24 24 24 24 24 23 23 28 33 34 34 34 35 35 34 33 32 31 31 30 30 30 30 30 30 31 30 30 30 30 30 30 31 31 30 29 28 27 27 27 27 27 27 27 27 27 27 27 26 27 27 27 28 28 28 28 28 28 29 29 29 29 29 28
17 17 17 17 17 18 19 19 19 19 20 20 20 21 21 22 22 22 21 21 22 23 23 24 24 24 24 24 23 22 25 31 32 33 34 34 34 35 34 34 33 32 31 29 29 30 30 30 30 30 31 31 30 31 32 31 32 30 29 29 28 28 28 27 27 27 27 27 27 27 27 26 27 27 27 27 28 28 29 29 29 29 29 29 28 29 29 29
19 18 18 17 18 18 19 20 20 20 20 20 20 21 21 22 22 22 22 22 22 23 24 24 24 24 24 24 23 23 26 30 32 34 34 34 35 34 34 34 33 33 31 29 28 30 30 31 31 31 32 32 31 32 33 32 32 30 29 29 29 29 28 28 27 27 27 27 27 26 26 27 28 28 27 27 28 29 29 29 29 29 29 29 29 29 30 29
19 19 18 18 18 18 19 20 20 20 20 20 21 21 22 22 22 22 22 22 22 23 24 24 24 24 24 23 23 25 27 30 34 34 34 34 35 34 34 34 34 33 32 30 30 30 31 32 33 34 34 33 32 33 33 32 31 30 30 30 29 29 29 28 28 27 27 26 25 26 27 27 27 28 27 28 29 29 29 29 29 29 29 29 29 29 29 29
18 19 19 18 18 19 19 20 20 20 20 21 21 21 22 22 23 23 23 22 22 23 23 24 23 23 23 22 24 28 31 33 34 34 34 35 34 34 34 33 34 33 32 32 31 31 32 33 34 35 35 35 34 33 33 32 31 31 31 30 30 29 29 28 27 27 26 25 25 27 27 27 27 27 28 28 29 29 30 30 29 30 29 29 29 29 29 29
17 18 18 17 18 19 19 20 20 20 20 21 21 22 22 23 23 23 23 23 23 23 23 23 23 23 23 23 25 29 33 34 34 34 34 34 34 34 33 33 34 33 32 32 32 32 33 34 35 35 36 36 35 34 34 33 32 32 31 31 30 29 28 28 27 27 26 26 26 28 28 27 28 27 28 28 29 30 30 30 29 29 29 28 29 28 28 28
16 16 16 16 17 18 19 19 20 20 20 21 21 22 23 23 23 24 24 23 23 23 23 23 23 23 22 23 26 30 33 33 34 34 34 34 34 34 34 34 33 33 32 32 32 33 34 35 35 35 36 35 35 34 34 34 33 32 31 31 30 29 28 28 28 27 27 27 26 28 28 28 28 27 28 29 29 30 29 30 29 28 29 28 28 28 27 27
15 15 15 16 17 18 18 19 19 20 20 21 21 22 23 23 23 24 24 24 23 23 23 23 23 23 22 23 26 30 33 33 34 34 34 34 34 34 34 34 33 33 33 32 33 34 35 35 35 35 35 35 35 34 34 34 33 32 31 30 29 29 29 28 29 27 28 28 26 28 28 27 28 27 28 28 28 29 29 29 29 28 29 28 28 28 28 27
15 15 15 15 16 17 18 19 19 20 20 21 21 22 23 24 24 24 24 24 24 23 23 23 23 22 22 26 29 32 33 33 33 33 34 34 34 34 34 34 34 34 34 33 33 35 36 36 35 35 35 35 35 34 34 34 32 32 31 30 29 28 28 29 29 28 28 28 27 27 25 25 27 27 27 28 28 28 28 29 29 28 28 28 27 27 28 26
14 15 15 15 16 17 18 19 19 20 21 21 22 23 24 24 24 24 25 25 24 24 23 23 23 22 23 27 31 33 33 33 32 32 33 34 33 34 34 34 34 34 34 34 34 35 36 36 35 35 36 36 35 34 34 33 32 32 31 30 30 26 27 30 30 28 28 28 27 27 24 24 27 27 26 27 27 28 28 28 28 28 28 27 27 27 27 26
14 15 15 15 16 17 18 19 19 20 21 21 22 23 24 25 25 25 25 25 24 23 23 23 22 22 24 27 31 33 33 33 33 33 34 34 33 33 34 34 34 34 35 34 35 35 36 36 35 35 36 36 35 33 33 32 32 33 28 27 29 26 27 31 30 28 29 28 27 28 25 25 27 27 26 26 27 28 28 27 27 27 27 27 27 27 27 26
14 15 15 16 16 17 18 19 20 20 21 22 23 24 25 25 26 26 25 25 24 23 23 23 22 23 25 28 31 33 33 34 34 34 35 35 34 34 35 35 34 35 35 35 35 35 36 36 35 35 36 35 34 33 32 30 29 32 29 25 26 27 27 30 30 31 31 29 28 28 27 26 28 28 26 25 26 27 27 27 27 27 27 27 27 26 26 26
14 15 15 16 17 17 18 19 20 20 21 22 24 25 26 26 27 26 25 24 23 23 23 23 22 23 26 29 31 33 34 34 35 35 35 35 35 35 35 35 35 35 35 35 35 35 35 35 35 35 35 35 34 33 28 24 24 28 29 26 27 28 26 27 30 32 31 30 29 29 29 28 28 28 26 25 25 26 28 28 27 27 26 26 26 26 26 26
15 15 15 16 17 18 18 19 20 21 22 23 24 25 27 26 25 24 24 23 23 23 23 23 23 24 27 30 31 32 34 34 35 35 35 35 36 36 35 35 35 35 35 35 36 35 35 35 35 35 34 34 35 33 26 24 26 26 26 26 26 28 27 27 29 31 31 31 29 29 29 29 28 27 26 25 25 26 27 27 27 27 26 26 26 26 26 26
15 15 16 16 17 18 19 19 20 21 22 24 25 26 27 26 24 24 23 23 24 25 26 25 25 27 29 30 31 32 33 34 35 35 35 35 36 35 36 35 36 36 35 35 35 35 35 35 34 32 32 33 34 33 30 30 32 30 29 28 26 26 27 29 31 31 32 30 29 30 29 28 28 27 26 26 25 26 26 26 26 26 26 26 26 26 26 26
15 16 16 17 18 19 19 20 20 21 22 24 25 25 27 26 26 26 24 24 25 27 29 28 27 29 30 31 32 33 34 35 34 35 35 36 36 35 35 35 35 35 34 34 34 35 36 34 32 31 32 34 34 35 34 35 35 34 32 30 28 27 27 31 32 31 32 30 29 30 29 27 27 27 26 26 25 26 26 26 26 26 26 26 26 26 26 26
16 16 16 17 18 19 20 21 21 21 22 23 23 24 27 26 27 27 26 27 27 27 28 29 28 28 30 31 32 33 34 35 35 35 36 36 36 35 34 35 34 34 34 34 34 35 35 32 31 33 34 35 35 36 36 35 36 34 32 29 28 28 28 32 32 31 33 31 29 30 29 27 27 27 27 26 25 26 26 26 26 26 26 26 26 26 26 26
16 16 17 17 18 19 20 21 21 22 22 22 21 23 25 26 28 28 28 28 28 27 28 28 28 28 30 31 31 32 33 34 34 35 35 36 35 34 34 34 34 33 34 34 34 33 32 31 33 35 35 35 36 37 37 36 36 34 32 29 26 28 29 31 32 32 32 31 29 30 29 27 28 27 27 26 26 27 27 26 26 26 26 26 26 26 26 26
16 16 17 17 18 20 21 22 22 22 22 21 20 21 24 27 28 28 28 28 27 29 29 28 29 28 29 30 31 33 33 34 34 34 35 35 34 34 34 33 33 33 33 33 33 30 28 31 36 36 35 36 36 37 38 37 36 34 32 28 25 28 29 27 30 32 33 32 30 30 29 28 28 27 27 26 26 27 27 26 26 26 26 26 26 26 27 27
16 16 16 17 18 20 21 22 22 22 22 22 21 23 27 28 28 28 28 27 27 28 29 30 30 30 30 32 33 33 33 34 34 34 35 35 34 34 34 34 33 33 33 34 34 31 30 34 37 36 36 37 36 37 38 36 33 33 33 29 27 29 30 28 30 32 32 31 31 30 26 26 28 28 27 28 28 28 27 27 27 26 26 26 27 27 27 27
16 16 16 17 18 21 22 22 22 23 23 23 24 26 28 28 28 28 28 26 26 28 30 31 31 32 33 33 34 34 34 34 34 34 35 35 34 34 34 34 33 33 34 34 34 33 33 35 36 36 36 36 36 37 38 36 31 31 33 32 31 32 32 32 31 31 28 26 30 30 23 23 27 28 28 29 29 28 28 28 28 27 27 27 27 27 26 26
16 16 16 17 18 21 23 22 22 22 23 24 26 27 27 28 28 28 28 25 24 28 31 31 32 33 34 33 34 34 32 33 35 35 35 35 35 35 34 34 34 34 34 35 35 34 35 37 36 36 36 36 37 36 38 37 31 28 32 34 34 34 32 31 30 28 24 23 30 31 24 22 25 27 29 29 29 29 28 28 29 28 27 27 27 27 26 26
16 16 16 17 17 19 20 22 21 22 24 26 27 27 28 28 28 28 27 23 23 29 31 31 32 33 33 33 35 33 30 32 35 34 35 36 35 36 34 34 34 34 35 35 31 32 36 37 36 37 36 36 35 35 38 39 32 28 33 35 34 34 32 31 30 27 26 27 29 31 28 23 22 25 29 29 29 29 28 29 28 27 27 27 26 26 26 26
16 17 16 17 18 17 18 19 18 20 25 26 26 27 28 28 27 28 25 21 25 32 32 31 32 33 34 34 34 34 32 33 34 33 35 36 35 35 34 34 35 34 36 33 27 31 37 36 36 37 36 35 35 36 38 38 35 33 35 35 34 34 33 32 30 27 28 27 24 27 28 24 22 25 29 29 28 29 29 29 29 28 27 26 26 26 26 26
17 17 17 17 18 18 18 18 18 21 25 26 25 26 27 27 27 27 24 22 27 32 32 32 32 33 34 33 33 34 34 34 34 34 35 35 35 35 34 34 35 34 35 33 30 33 36 36 37 37 35 36 36 38 39 38 37 36 36 35 35 34 33 32 30 27 27 25 22 24 26 24 22 24 27 27 27 28 29 29 29 28 27 26 26 26 26 26
18 18 17 18 18 18 18 17 21 24 25 25 25 26 27 27 27 24 21 23 29 31 31 31 32 33 33 32 32 33 33 33 34 35 35 35 35 35 35 35 35 34 34 34 34 34 35 36 37 37 37 37 38 38 38 38 38 36 35 34 33 33 32 31 30 28 25 23 23 25 26 25 23 23 25 27 28 29 30 29 28 27 27 26 26 26 26 26
20 19 18 19 19 18 18 20 24 25 25 25 26 26 26 27 26 22 22 27 29 30 31 31 32 33 32 32 32 32 33 33 34 34 34 35 34 34 34 34 33 33 32 32 33 35 36 36 37 38 38 38 38 38 38 39 38 37 35 33 29 28 29 27 26 26 23 22 24 26 27 25 22 24 27 29 30 30 30 29 28 27 27 26 26 26 26 26
21 21 21 21 21 20 21 24 26 25 25 25 25 26 26 25 24 21 25 29 27 28 32 32 32 33 32 32 32 32 33 33 34 34 34 34 33 34 33 33 32 29 25 27 30 32 34 36 36 37 38 38 38 36 36 37 38 37 34 29 25 23 24 23 22 23 22 22 25 27 27 25 23 27 30 31 31 30 30 30 28 27 27 26 26 26 26 26
23 23 23 24 23 23 24 25 25 24 25 25 25 26 26 23 22 23 26 28 27 30 33 33 33 33 32 32 32 33 32 33 34 34 34 34 33 33 33 33 34 30 26 27 27 26 29 34 36 36 37 38 38 34 31 32 35 35 32 27 24 23 22 22 22 22 22 22 25 28 27 24 24 28 32 31 31 31 31 30 29 28 27 26 26 26 26 26
24 25 25 25 25 25 25 25 24 24 24 25 26 27 25 22 24 27 28 29 31 33 34 33 33 33 32 32 32 33 32 32 34 34 34 34 31 31 32 33 34 33 31 28 26 25 24 27 33 35 35 37 39 37 34 34 35 35 36 32 26 24 23 22 22 22 22 23 24 26 25 23 23 28 32 32 31 31 30 30 29 28 27 27 27 26 26 26
25 25 25 25 26 26 26 25 24 23 23 25 27 26 23 22 24 27 28 31 33 34 34 34 34 32 31 32 33 34 33 31 33 34 33 33 31 31 33 33 33 34 32 27 26 28 24 25 34 37 36 38 38 38 38 37 33 34 38 33 27 28 27 24 23 23 23 22 23 24 24 25 27 30 32 32 31 30 29 29 29 28 27 27 27 27 26 26
25 26 26 26 26 27 27 25 24 23 23 26 27 25 23 25 27 29 31 32 32 34 34 32 33 30 27 30 33 34 34 33 33 33 32 33 32 32 33 34 34 34 33 29 28 28 24 26 35 37 36 39 37 37 39 35 32 33 32 29 31 34 31 24 22 24 23 22 23 23 23 26 28 30 32 32 30 29 28 28 28 27 27 27 27 27 26 26
25 25 24 26 27 27 27 26 25 23 24 27 26 25 26 29 30 31 33 33 32 34 33 28 30 30 26 27 30 33 33 32 33 31 30 31 31 32 34 34 34 34 34 32 31 31 27 26 34 37 35 38 37 37 39 38 36 33 29 31 35 35 33 28 23 23 23 22 23 23 23 24 24 25 30 31 29 29 28 28 28 27 27 27 27 27 27 27
21 22 23 26 28 27 27 26 25 24 25 27 26 26 28 29 31 32 33 33 33 35 33 28 29 32 28 26 28 33 32 30 31 31 29 29 30 32 35 34 35 35 35 34 32 34 31 25 30 37 36 37 38 36 34 37 39 36 33 37 35 28 26 26 23 23 23 22 22 23 23 23 23 24 29 30 29 29 29 28 28 27 27 27 27 27 27 27
18 22 26 28 29 28 27 26 25 25 26 27 26 27 29 30 31 33 33 33 34 34 33 31 31 32 31 30 30 33 32 29 31 31 28 29 30 33 35 35 35 35 34 35 33 34 34 27 26 34 37 36 37 34 30 31 36 37 36 38 36 30 27 26 25 24 23 22 22 22 22 23 25 28 30 30 30 29 29 28 28 28 28 27 27 27 27 27
19 24 28 29 28 27 27 26 25 25 26 27 27 27 29 30 31 33 33 33 33 33 32 33 33 32 32 33 33 33 33 32 32 31 30 30 30 33 35 35 35 36 34 35 34 34 35 29 25 31 36 34 32 33 32 32 34 34 31 31 32 31 30 28 27 25 24 22 22 23 22 23 29 33 32 31 30 29 29 29 29 29 28 27 27 28 28 27
19 26 27 28 28 27 26 26 25 26 26 27 28 28 29 30 32 33 33 32 33 33 32 33 33 33 32 32 32 33 34 33 33 32 32 32 31 31 35 35 36 37 34 34 35 34 33 30 26 27 30 28 30 36 37 35 36 35 32 31 31 30 28 26 25 25 25 23 22 23 22 23 31 34 33 32 31 29 30 29 29 29 28 28 28 28 28 28
20 26 27 27 28 27 26 26 26 27 27 28 29 29 30 32 32 32 32 32 32 32 32 32 33 33 32 32 32 33 33 33 33 33 33 33 33 33 36 37 36 37 36 34 35 35 35 33 27 25 28 30 33 36 36 36 37 37 36 36 35 33 28 24 23 24 24 23 24 24 22 25 33 35 33 33 31 30 30 29 29 29 28 28 28 28 28 28
22 24 27 28 28 27 27 27 27 28 28 29 30 31 32 32 32 31 32 32 32 32 32 32 32 32 32 32 32 32 32 32 33 34 34 35 36 36 37 37 36 37 37 34 35 36 35 32 27 25 29 33 34 36 37 38 37 35 35 37 36 35 32 29 27 26 24 23 24 23 21 25 33 34 33 32 32 31 30 29 29 29 28 28 28 28 28 28
18 19 25 28 28 28 27 27 27 27 28 29 30 31 32 32 31 31 31 31 31 31 31 31 32 32 32 32 32 32 31 30 31 33 34 34 35 36 36 37 37 37 37 36 36 35 32 30 27 24 25 27 29 31 33 34 35 34 35 37 37 37 35 32 30 28 25 23 24 23 22 25 32 33 32 32 31 31 30 30 29 29 28 28 27 27 27 27
18 20 23 26 27 28 28 27 27 27 27 28 29 30 31 31 31 31 31 31 31 30 30 31 32 32 32 32 32 32 32 30 31 32 33 33 34 35 35 36 38 37 37 36 37 36 33 31 29 24 22 23 23 24 26 29 32 34 35 36 37 37 34 31 27 25 24 23 24 23 23 26 31 32 31 31 31 30 30 30 29 29 28 28 27 27 27 27
21 23 23 24 25 26 27 27 27 26 27 27 28 30 30 29 30 31 31 30 30 30 31 31 31 31 31 31 31 31 31 32 31 32 33 33 33 34 34 35 37 37 37 37 36 37 35 33 31 27 25 25 25 26 30 32 30 30 32 34 36 37 37 32 26 23 24 24 23 24 25 26 28 30 30 30 30 29 29 29 28 28 28 27 27 27 27 28
21 22 22 21 22 25 25 26 26 25 26 26 28 30 30 28 29 30 30 30 29 30 31 30 30 30 29 30 31 30 30 31 31 31 32 32 32 34 34 35 36 35 36 37 36 37 34 30 31 31 29 29 30 31 33 34 31 30 31 32 34 36 36 31 26 26 27 24 22 26 28 26 27 30 30 29 30 30 29 28 28 27 27 27 27 27 27 27
20 21 21 20 21 23 24 25 24 24 25 27 28 30 29 28 28 28 29 29 29 29 30 30 30 30 30 30 30 29 29 29 29 30 31 31 32 33 33 34 35 34 35 36 36 37 34 29 31 33 30 33 34 33 34 34 33 34 33 32 34 35 34 31 29 30 30 25 24 28 29 27 28 31 30 29 30 29 29 28 27 27 27 27 27 27 27 27
18 18 19 19 20 21 21 23 23 24 26 27 28 29 29 27 28 27 27 28 29 29 29 29 30 31 31 30 30 30 29 27 27 29 31 31 31 32 32 33 34 34 34 34 35 36 33 30 33 34 30 32 35 34 35 34 33 33 33 33 34 35 34 32 31 32 32 29 29 30 29 29 31 31 30 30 30 29 28 27 27 27 27 27 27 28 27 27
16 16 17 17 18 19 20 22 24 25 26 26 26 28 28 28 28 27 27 28 29 29 29 28 29 30 30 30 30 30 30 29 28 30 31 30 30 31 32 32 33 34 34 34 35 36 32 30 34 34 29 29 34 35 34 34 32 30 31 33 34 35 34 32 31 32 31 29 30 31 28 29 31 31 30 30 29 28 28 27 27 27 27 27 28 27 28 28
14 16 16 16 17 20 21 22 24 25 25 25 25 26 28 29 28 27 28 28 28 29 29 29 29 29 30 31 30 30 31 31 31 31 31 31 31 31 32 32 33 33 33 33 34 35 33 31 34 33 26 25 32 33 32 33 32 29 28 30 32 32 32 31 32 33 31 29 29 28 26 28 31 30 29 29 28 28 27 27 27 27 27 28 27 27 28 28
12 15 16 16 18 20 20 21 24 24 24 25 25 26 27 28 28 28 28 28 28 29 29 29 29 29 30 30 30 30 31 31 31 32 32 32 32 32 32 32 33 32 33 34 33 34 34 32 31 30 24 24 30 32 31 30 27 25 27 30 32 32 32 32 33 34 33 31 29 27 28 29 30 29 28 28 28 28 27 27 27 27 27 27 27 27 27 27
Height
819 817 815 814 812 811 809 807 806 803 802 800 797 796 794 792 790 788 787 785 784 782 781 780 778 778 777 777 776 776 775 773 772 772 770 761 757 759 761 761 762 763 764 765 767 769 771 773 774 774 776 778 779 779 778 777 779 787 796 806 814 815 812 807 806 804 803 804 802 799 798 801 802 797 790 788 792 792 790 788 784 782 780 781 781 781 782 785
818 817 815 813 812 810 808 807 805 803 801 799 797 795 793 792 790 788 786 784 783 781 780 779 778 778 777 777 776 775 774 772 771 769 762 757 756 758 759 760 761 762 762 764 765 766 770 772 772 773 777 780 778 777 780 778 780 789 796 806 810 807 802 798 798 798 798 801 800 798 797 798 801 798 792 796 800 795 796 795 789 790 787 783 782 782 783 785
818 816 814 813 811 809 808 806 804 802 800 798 797 794 793 791 789 787 785 784 782 780 779 778 778 777 777 777 775 775 773 771 771 764 756 755 756 757 758 759 760 760 760 762 763 764 767 769 770 772 779 782 777 778 782 779 781 785 792 808 806 798 797 794 794 795 795 796 799 799 797 798 798 794 794 799 802 799 801 801 796 798 794 789 785 783 784 786
817 815 813 812 810 808 807 805 803 801 799 798 796 794 792 790 789 787 785 783 781 780 779 778 777 777 777 775 775 775 772 774 770 758 754 755 755 755 756 757 758 759 759 760 762 764 766 768 770 772 780 785 777 776 781 779 781 782 789 802 798 792 797 794 791 792 791 793 796 798 798 800 796 793 796 800 805 806 802 798 797 798 794 791 787 784 785 787
816 814 812 811 809 807 805 804 802 800 799 797 795 793 791 789 788 786 785 783 781 780 778 778 777 777 777 775 776 773 774 784 770 752 755 755 754 755 755 756 756 757 757 759 761 763 765 766 769 773 778 784 781 778 781 774 773 783 788 790 789 790 796 792 788 789 789 791 794 797 799 799 795 795 798 800 807 807 798 793 792 792 790 789 788 786 786 787
815 813 811 809 807 806 804 802 801 799 798 796 794 792 791 789 787 786 784 782 781 780 778 778 777 777 776 775 776 772 778 785 764 751 756 753 754 755 754 755 754 755 755 758 760 761 764 763 769 777 777 780 783 780 777 769 769 786 792 786 786 788 791 789 786 788 789 792 796 796 795 794 797 800 798 799 802 797 790 788 787 787 786 786 787 787 788 788
813 811 810 808 806 805 802 801 799 798 796 794 793 791 790 788 786 785 783 782 781 779 778 777 777 777 776 775 775 774 778 774 755 753 756 752 755 753 754 755 753 755 753 756 760 761 763 765 771 774 774 780 781 776 772 769 769 785 793 787 785 785 787 787 785 788 788 792 794 792 794 795 800 801 797 798 796 789 786 784 784 785 784 785 787 787 788 788
812 810 808 806 805 803 801 800 798 796 795 793 792 790 789 787 785 784 782 781 779 778 778 777 777 776 776 776 775 777 778 765 752 753 754 753 755 752 754 754 753 754 751 754 756 758 762 766 768 765 773 778 774 773 770 773 778 783 788 786 784 784 785 785 786 789 789 792 793 792 797 798 796 796 797 797 791 786 784 783 783 783 783 785 786 787 788 788
811 809 807 805 803 801 800 798 796 795 793 791 790 788 787 785 784 782 781 780 778 778 777 776 777 775 776 774 776 781 771 755 751 753 752 753 753 752 754 752 753 753 751 752 751 755 761 763 762 759 769 770 767 772 769 778 787 781 781 782 783 786 785 786 788 790 791 792 792 795 799 797 792 794 798 794 787 783 781 783 783 782 785 785 786 786 786 787
811 808 806 804 802 800 798 796 795 792 791 790 788 786 785 784 783 781 780 779 778 777 776 777 776 775 777 773 778 781 761 749 753 752 752 753 752 752 752 751 752 751 750 751 749 753 756 757 755 750 758 764 766 770 768 774 778 772 776 779 782 787 785 787 790 791 791 792 792 795 800 796 789 796 802 791 782 781 781 784 783 783 786 785 785 785 785 787
809 807 805 803 801 799 796 795 793 791 789 787 786 784 783 782 781 780 779 778 777 776 776 776 775 776 775 773 781 777 754 749 753 751 752 752 751 752 751 751 750 750 750 749 749 749 750 750 746 748 759 764 766 770 767 765 767 770 776 783 786 787 788 788 791 792 792 794 792 792 798 796 792 798 799 788 781 780 783 785 784 785 787 786 786 786 786 786
808 806 804 802 800 797 795 793 791 789 787 785 784 782 781 781 779 778 777 777 776 775 776 775 776 775 774 776 777 765 750 752 753 751 752 751 752 752 750 751 749 749 749 748 748 746 747 746 744 757 763 761 769 777 770 760 766 773 776 791 796 792 794 792 790 792 792 794 790 790 802 805 801 800 793 785 782 781 784 786 786 787 787 787 788 787 787 786
807 805 803 801 798 796 794 791 789 787 785 783 782 779 779 778 777 777 775 775 775 775 775 775 775 773 776 776 763 752 751 753 753 752 752 750 751 751 750 750 748 748 748 747 747 745 747 745 747 756 755 759 772 771 764 761 769 778 780 791 800 802 803 793 788 792 793 793 786 792 815 819 807 800 791 784 784 784 788 788 787 788 788 788 789 789 788 787
806 804 802 800 797 795 792 790 788 785 783 781 779 778 777 775 776 775 774 774 773 774 774 774 775 774 776 770 752 748 751 750 753 752 750 750 750 750 749 749 748 747 746 746 745 744 746 744 746 752 750 756 763 760 766 773 776 783 788 792 800 810 807 790 787 795 798 793 785 795 819 821 807 799 792 787 786 787 791 791 789 790 790 789 790 790 789 786
806 803 801 799 796 793 791 788 786 783 781 778 776 775 774 773 773 772 773 773 772 773 773 773 774 773 777 769 749 746 749 748 750 749 748 749 749 749 748 747 747 746 745 745 743 743 744 744 750 758 756 751 757 770 783 786 783 786 797 804 804 808 806 792 788 792 797 793 787 798 816 817 805 798 793 789 788 789 793 794 791 791 791 791 790 790 790 787
805 802 799 797 794 792 790 787 784 781 778 775 774 773 771 771 769 770 771 770 771 772 772 774 772 773 780 769 749 746 747 746 746 746 747 748 748 748 746 747 746 745 746 743 743 743 743 747 751 756 758 758 766 781 791 796 796 792 798 808 806 806 808 800 791 784 787 792 793 798 811 814 803 795 794 791 791 792 793 793 791 792 792 791 791 790 790 788
804 801 798 795 793 791 788 785 783 779 776 774 771 769 768 767 766 768 769 770 772 771 771 773 771 775 774 759 751 750 745 743 744 744 746 746 747 746 746 747 746 745 744 742 743 744 745 751 755 757 760 766 770 779 799 810 808 800 799 803 803 803 806 805 797 785 781 791 798 799 804 807 799 793 795 793 793 795 794 793 792 792 793 792 791 791 790 788
802 799 797 794 791 789 786 784 781 778 775 772 769 767 766 765 765 766 767 769 770 770 773 772 773 782 774 756 754 751 743 743 743 742 744 745 745 745 746 747 745 745 748 750 748 748 753 755 760 768 771 773 773 782 803 806 797 799 800 801 803 802 803 804 799 788 784 792 800 802 803 803 799 796 797 795 793 795 794 793 792 791 793 793 791 790 789 787
801 798 795 792 789 787 785 782 780 777 773 769 768 766 764 764 764 765 767 769 772 774 776 773 772 777 771 756 750 745 740 741 741 742 743 743 744 744 745 746 746 749 760 766 761 755 758 763 771 780 781 778 775 777 785 780 776 785 789 795 803 802 800 797 792 784 783 795 803 802 803 804 802 800 799 795 793 795 795 793 793 793 793 792 791 790 787 785
800 797 793 790 788 785 783 781 779 776 772 769 767 765 766 770 772 772 769 767 768 767 766 765 763 763 759 752 746 743 741 740 741 742 742 742 743 745 746 747 751 757 766 773 770 756 757 775 783 780 776 771 768 767 764 761 765 775 783 791 794 797 798 791 788 783 777 794 805 799 803 807 804 801 798 796 795 795 796 796 795 794 794 792 791 789 786 784
798 795 792 789 786 783 781 779 777 775 772 770 768 768 771 775 779 779 771 765 760 756 758 756 754 756 753 748 744 743 745 745 742 740 741 741 741 751 755 753 764 772 769 768 768 757 762 783 780 767 764 761 761 760 756 758 764 774 783 790 793 796 797 788 787 785 775 790 804 799 805 809 804 802 797 796 799 797 795 796 796 795 794 792 791 789 787 784
796 793 790 787 784 781 779 777 776 774 772 771 770 770 771 770 772 771 769 770 760 750 754 752 750 753 747 745 744 742 748 753 750 743 740 740 744 757 760 759 772 777 767 766 772 773 778 783 771 758 757 755 755 752 751 757 764 774 779 787 797 796 795 792 787 783 779 789 802 801 805 808 803 800 798 797 797 794 791 792 793 793 794 793 791 790 788 786
795 791 788 785 781 779 777 776 775 773 772 771 771 771 768 766 766 764 766 774 766 750 750 752 751 751 748 747 742 741 751 756 757 749 738 742 750 754 760 766 772 773 771 773 779 787 791 778 760 752 751 753 756 750 751 757 763 773 778 789 800 794 795 800 792 785 782 785 796 801 805 808 804 802 800 796 794 791 790 790 790 791 792 792 790 789 788 787
793 789 787 783 779 777 775 774 773 772 772 771 770 768 766 764 764 764 766 773 772 755 744 745 745 746 746 743 738 743 752 750 752 749 737 743 752 752 759 764 770 776 774 772 775 783 784 766 750 750 751 755 760 754 752 760 766 771 775 785 795 790 788 792 789 785 785 788 792 800 814 816 808 809 806 797 793 792 791 792 792 790 789 789 788 787 787 786
791 788 785 781 778 775 773 773 771 772 771 769 768 766 765 765 763 763 767 778 779 759 744 741 742 741 736 736 738 739 747 747 744 741 733 738 747 754 758 757 766 779 774 769 773 779 774 755 747 755 755 754 760 758 753 759 768 772 772 774 780 781 781 783 786 790 800 808 797 797 826 831 812 809 808 799 797 797 794 793 793 791 790 789 789 788 787 787
789 786 782 780 777 773 772 772 771 772 770 767 767 765 765 765 763 763 770 788 788 764 751 748 746 743 735 737 737 736 755 755 735 731 732 734 737 745 759 760 761 771 769 764 770 772 763 749 748 756 757 756 761 759 750 752 769 777 770 765 768 773 779 785 789 795 809 815 795 789 819 835 821 812 807 800 801 800 797 795 793 792 792 791 791 790 789 788
787 784 781 780 776 774 773 772 772 772 770 768 765 765 764 762 763 762 774 802 794 761 753 753 746 742 736 735 733 744 769 757 733 732 731 733 734 736 757 766 763 765 758 762 777 770 756 753 755 756 758 761 763 760 749 747 766 776 763 760 767 772 779 784 787 794 800 800 795 791 803 825 829 816 804 801 803 804 801 798 795 794 794 793 792 790 789 789
785 782 780 778 776 776 773 772 773 770 769 768 764 764 764 761 762 763 785 813 791 752 749 750 740 735 732 732 732 744 754 745 747 746 725 729 737 739 759 764 763 765 754 767 789 771 753 760 761 758 762 765 760 754 745 744 762 766 755 757 763 767 774 779 785 794 792 797 810 802 795 818 831 813 802 803 806 808 804 798 796 795 794 793 792 791 789 788
782 780 778 776 775 774 773 773 771 768 768 766 764 765 762 761 763 770 795 808 777 747 746 745 740 737 736 738 741 743 741 741 753 745 725 732 736 738 756 756 755 764 756 764 781 767 754 754 751 754 763 761 753 746 740 746 758 755 750 756 762 767 774 780 789 793 793 806 818 806 797 817 829 816 808 810 809 808 803 797 794 793 793 793 791 791 790 788
780 778 776 774 773 772 772 771 768 767 766 764 765 763 760 764 770 789 810 798 769 754 747 745 747 745 745 752 753 749 747 748 746 738 736 740 737 737 745 744 748 761 762 762 767 762 751 744 742 748 751 747 743 742 738 741 748 750 756 766 772 778 779 784 790 790 803 820 815 802 797 809 826 820 809 807 801 797 797 796 795 793 793 793 791 790 790 789
777 776 774 772 772 772 772 769 766 766 766 764 764 761 764 772 782 806 808 777 762 762 751 751 752 747 751 760 761 754 753 752 745 746 750 747 748 751 751 754 758 766 773 771 767 761 752 750 748 742 736 735 739 743 740 736 740 751 766 775 784 792 789 795 799 798 819 832 811 797 796 804 822 817 801 795 788 785 789 792 794 795 794 793 791 790 789 788
774 773 771 769 769 770 769 768 765 766 765 765 764 762 772 787 797 805 790 765 768 768 754 755 754 749 754 758 759 757 756 757 749 749 755 755 760 761 761 767 769 779 790 783 776 770 761 757 751 742 733 732 743 752 750 744 744 756 771 781 796 811 813 820 825 821 829 826 802 794 799 807 813 800 787 787 783 781 783 783 787 791 792 792 791 790 788 788
771 769 768 767 766 766 766 766 765 766 765 763 765 766 779 799 801 789 777 770 770 758 747 750 749 748 755 759 761 756 756 759 751 750 753 755 763 763 761 760 759 776 788 782 782 783 776 764 751 750 745 732 740 758 764 762 757 762 771 781 799 817 830 842 844 838 835 820 799 794 802 812 810 792 780 781 778 776 777 778 781 783 787 790 789 788 788 788
769 767 767 765 765 765 764 765 765 765 765 763 768 775 788 801 791 774 771 768 757 746 744 747 748 752 757 760 759 753 758 762 751 752 756 758 769 771 765 761 756 764 774 779 784 785 792 785 760 754 752 737 737 746 752 756 759 760 757 768 787 797 812 831 836 835 833 821 807 802 808 817 813 794 777 773 773 773 775 776 778 781 784 786 787 788 789 788
768 766 766 764 764 763 763 765 765 765 765 765 773 786 796 797 784 773 770 761 752 750 746 744 749 760 762 758 754 747 754 761 752 754 760 762 770 769 765 763 758 758 769 784 784 777 790 787 755 741 740 735 738 735 732 747 764 758 750 766 780 774 781 804 814 813 815 821 818 812 811 807 798 786 774 772 775 776 779 779 780 784 785 785 789 790 789 789
767 765 765 764 763 763 763 764 764 765 765 768 780 792 793 787 777 770 762 754 754 753 752 753 755 765 769 762 757 750 748 754 755 760 763 761 764 762 759 756 751 754 763 776 779 776 786 780 749 740 740 731 735 732 727 744 762 759 758 769 765 753 764 793 809 803 806 826 827 815 811 802 796 793 780 776 783 783 784 784 783 786 786 787 791 789 789 789
766 764 764 762 762 763 763 763 764 765 766 773 786 789 783 774 765 760 753 748 749 746 754 766 761 761 770 767 762 755 752 755 758 762 766 765 763 757 754 750 744 747 750 757 767 766 776 778 752 744 749 733 723 728 727 728 740 756 766 759 749 751 759 779 809 817 819 836 830 814 813 809 811 811 791 784 792 790 787 787 786 788 788 789 790 788 788 787
766 765 763 761 761 763 763 764 764 765 769 778 788 786 777 769 757 751 749 746 744 742 754 769 762 755 763 768 763 753 755 762 762 762 766 768 762 748 747 748 740 739 738 745 760 757 763 779 760 741 748 737 721 734 746 734 727 741 749 740 747 773 778 780 803 818 825 840 834 817 814 810 810 807 794 791 795 791 789 789 788 789 788 789 789 788 787 786
767 768 766 761 760 762 764 765 764 767 774 782 790 784 772 765 755 747 746 746 744 746 755 761 757 754 757 760 758 752 754 760 760 761 763 767 762 743 738 743 739 737 735 740 755 754 754 776 772 745 739 737 731 744 761 755 738 735 739 739 746 764 774 778 788 797 812 833 835 826 824 813 797 788 785 788 787 786 789 788 786 787 786 787 787 787 787 786
769 772 770 761 761 764 764 765 766 773 781 783 785 780 769 764 755 744 742 745 746 750 756 756 753 756 756 752 751 750 751 754 755 758 759 759 758 744 733 735 737 735 734 736 746 750 753 770 776 755 739 745 751 751 755 757 750 747 753 758 755 755 761 770 777 782 795 818 830 833 835 813 781 770 773 776 779 781 782 783 784 783 783 785 785 784 785 784
772 777 774 762 762 765 764 770 776 779 783 783 780 775 768 761 754 747 742 742 744 745 749 752 752 753 755 755 754 749 749 752 751 753 755 752 754 749 732 725 729 731 736 745 748 750 756 765 772 766 757 761 759 743 739 744 744 746 752 756 756 758 764 779 791 786 783 800 813 821 829 806 769 759 763 766 772 774 773 777 781 781 782 783 782 782 782 782
778 781 774 764 766 764 766 779 781 778 782 780 773 768 762 756 753 752 746 743 746 745 744 748 751 752 754 756 754 748 748 751 750 750 750 746 746 744 726 716 721 723 732 748 747 738 743 756 767 769 762 760 752 736 733 735 733 737 742 742 747 754 762 780 796 790 785 794 797 803 815 797 762 752 757 760 764 766 768 772 776 779 780 781 782 781 781 781
784 782 770 765 767 764 772 785 782 778 780 772 764 760 756 754 756 755 751 749 751 750 751 753 752 753 754 752 751 750 748 748 749 748 746 742 737 729 718 714 719 722 728 743 745 734 739 755 767 769 760 750 742 732 727 726 731 742 743 737 741 747 750 760 771 775 786 796 794 806 818 794 760 751 754 756 759 762 766 769 773 778 779 780 782 781 781 781
789 785 771 766 766 766 779 790 788 785 781 771 767 763 756 754 757 758 758 756 754 755 759 758 753 753 753 749 749 751 751 752 753 748 745 745 736 722 715 713 716 722 728 736 738 737 747 760 768 778 781 772 763 755 746 740 741 748 747 740 738 741 747 756 760 768 786 791 788 803 813 790 763 756 756 758 761 765 769 768 771 776 778 780 781 780 781 781
789 786 777 770 767 769 780 785 785 788 784 777 775 769 763 760 756 755 758 757 753 755 760 759 752 750 750 748 750 752 750 753 756 750 745 747 738 723 718 717 715 719 723 724 724 730 748 760 764 779 795 797 792 782 769 759 752 748 746 741 738 740 747 757 765 776 788 788 785 793 796 783 770 764 763 764 766 770 772 772 772 774 776 778 779 780 781 781
791 792 788 781 774 775 779 777 780 786 786 784 781 771 770 772 761 752 755 757 755 753 755 757 752 752 754 753 757 761 756 752 753 752 750 752 745 732 724 720 718 720 721 720 720 728 746 757 758 768 779 780 779 771 760 757 758 756 751 744 741 739 740 750 768 778 778 782 790 787 779 779 779 775 773 771 770 772 774 775 775 776 776 778 778 780 780 780
796 800 801 800 792 787 784 779 781 787 784 785 784 773 772 778 771 761 757 759 759 754 755 756 755 760 766 763 764 769 765 758 756 756 756 755 749 738 728 723 723 724 722 721 722 731 750 760 757 761 765 762 761 759 754 755 758 756 753 748 743 739 740 750 764 766 766 782 796 783 771 779 783 777 776 774 772 773 775 775 776 776 777 778 779 779 780 780
801 803 804 806 805 801 795 788 787 788 783 780 778 772 775 779 778 774 768 761 758 757 760 763 760 762 766 766 768 773 771 768 767 764 761 758 754 748 739 730 727 725 726 728 725 730 750 761 755 756 759 755 752 753 752 753 754 750 748 749 745 742 742 747 753 754 757 772 782 773 771 778 778 774 774 772 769 771 773 772 772 773 776 777 778 780 781 781
808 809 806 804 806 806 802 795 791 789 786 782 778 775 778 782 781 779 774 767 764 762 765 773 769 761 760 762 767 774 776 777 778 772 764 762 760 758 755 747 736 729 731 737 732 731 747 758 752 753 758 753 748 749 748 750 753 751 749 748 744 741 741 743 750 752 752 759 763 764 771 774 769 767 768 764 763 765 768 770 771 773 775 776 777 780 780 780
815 817 814 811 810 805 800 795 791 789 787 785 785 781 777 780 782 778 773 772 775 770 767 774 772 763 760 762 766 772 772 773 777 772 764 765 765 761 761 758 748 739 738 742 740 735 745 757 751 749 759 758 748 745 747 751 756 757 756 752 744 741 743 747 751 753 756 763 763 763 774 775 764 759 760 761 763 765 768 771 772 773 774 775 777 779 778 778
819 819 817 818 815 805 800 796 790 791 792 791 792 788 780 779 779 776 772 769 772 773 768 769 770 765 762 763 766 768 763 760 765 762 756 760 761 757 756 752 749 750 748 746 746 742 747 757 751 752 769 768 751 749 752 750 753 759 761 760 753 749 749 749 749 748 754 764 769 771 778 776 765 759 761 764 766 768 771 773 773 774 773 774 777 778 777 777
820 818 815 818 816 807 805 801 793 796 799 795 793 789 783 780 775 774 777 771 764 765 764 762 766 768 768 768 767 763 756 753 753 749 746 747 746 745 747 744 742 749 752 750 750 748 750 756 754 760 775 771 756 756 755 753 766 775 767 759 755 752 750 749 747 744 744 752 765 772 770 765 761 761 764 768 769 770 772 772 772 773 772 774 776 776 776 777
Wind_Speed
20 21 21 21 22 22 23 23 23 23 23 24 24 25 26 27 27 25 24 22 20 17 15 13 11 10 9 10 10 11 13 14 13 9 9 10 11 9 8 6 3 5 9 9 11 10 8 8 8 10 9 5 5 4 4 5 2 1 1 3 1 0 1 2 3 2 3 3 3 2 2 4 1 3 2 1 2 2 2 4 3 4 4 3 7 15 20 23
21 21 21 22 22 23 23 23 23 23 23 24 24 25 26 27 27 26 24 22 20 17 14 12 10 9 8 9 9 11 13 14 12 11 14 10 7 9 10 8 5 6 10 12 16 15 9 7 8 8 5 3 4 3 4 5 4 2 1 3 0 2 3 2 2 2 2 4 4 4 3 3 2 2 2 3 4 4 5 6 5 7 6 6 9 17 19 19
21 22 22 22 23 23 23 23 23 23 23 24 24 25 25 26 27 26 25 22 19 16 14 11 9 8 8 8 8 10 12 10 6 9 12 9 10 13 14 12 9 9 10 10 14 18 14 10 11 8 4 4 3 3 4 3 3 2 3 3 2 2 2 2 3 3 2 4 4 2 2 2 2 2 2 2 3 5 4 2 5 6 6 6 6 12 15 13
22 23 23 23 23 23 24 24 24 24 24 24 24 24 25 26 26 26 24 22 19 16 13 11 9 8 8 8 7 8 8 5 2 5 3 3 7 10 14 15 12 12 12 9 10 15 14 10 9 8 6 5 2 3 3 3 3 1 3 2 4 4 2 3 4 3 4 4 5 3 4 3 2 2 2 3 4 4 2 0 3 5 5 5 4 7 10 9
23 24 24 25 24 24 24 24 24 24 24 24 24 24 24 25 25 25 23 21 17 14 13 11 9 8 8 7 6 7 5 2 1 3 0 1 3 5 8 10 11 12 12 10 8 8 10 8 7 7 6 5 3 2 2 5 5 1 2 3 7 6 3 5 5 4 5 4 5 5 4 2 0 1 2 4 4 1 2 1 3 4 5 5 5 5 5 7
24 24 25 26 26 25 25 25 25 25 25 25 24 24 24 24 24 24 23 20 16 14 12 11 9 8 7 6 4 4 1 1 3 2 1 2 3 4 4 6 9 11 11 9 6 3 5 6 4 4 4 4 5 4 3 6 5 3 2 4 7 6 5 6 6 5 5 5 5 5 4 3 3 2 1 3 2 4 3 3 1 2 7 7 6 5 4 5
24 24 25 26 27 26 26 25 25 25 25 25 25 24 23 23 23 23 22 19 15 13 12 11 10 8 6 4 3 3 2 4 8 4 4 3 3 5 5 7 8 10 11 7 6 4 4 5 4 5 4 4 6 6 5 7 7 6 5 7 8 6 6 7 7 6 5 6 5 4 4 3 4 4 2 1 4 4 3 4 2 2 7 9 6 5 4 3
25 24 25 26 27 27 27 26 26 26 25 25 25 24 23 22 22 22 20 17 14 12 12 11 9 7 5 2 2 3 0 6 7 4 5 3 3 5 7 8 8 11 11 7 7 5 2 4 4 3 2 2 6 6 5 8 6 6 7 8 7 6 7 7 6 6 6 5 4 5 4 2 4 4 3 2 4 3 5 4 3 3 6 8 7 7 5 4
26 25 25 26 27 27 27 27 26 26 26 26 26 25 24 22 22 21 19 16 13 12 11 11 9 6 5 2 0 2 4 6 4 4 6 4 3 6 8 9 10 11 9 8 8 4 1 3 4 1 2 2 5 6 6 6 4 6 9 10 8 7 7 7 6 6 6 4 4 6 2 2 4 2 2 4 4 2 5 4 2 4 7 8 8 7 7 6
26 26 27 27 27 27 27 27 27 27 27 27 26 25 24 22 21 20 17 15 12 11 11 10 8 5 5 3 2 0 4 5 6 5 5 4 5 7 9 10 10 11 8 8 8 4 3 3 6 3 2 3 3 4 4 3 4 8 11 10 10 8 6 7 6 5 4 3 5 6 3 4 4 3 1 5 6 4 5 4 2 5 7 7 7 7 7 7
27 27 27 27 28 28 27 27 27 27 27 27 27 26 24 22 21 20 16 12 11 10 10 8 7 5 3 2 3 3 4 6 7 4 4 4 5 7 10 11 11 10 9 7 8 8 6 8 7 4 2 3 1 1 1 4 7 10 11 8 8 8 6 6 6 5 3 2 5 5 4 2 2 3 3 4 6 5 5 4 3 6 5 4 5 6 5 6
28 28 28 28 28 28 27 27 27 28 28 28 27 26 25 22 20 19 14 10 9 9 9 7 5 4 2 2 4 8 5 5 5 4 4 3 3 4 6 9 10 10 9 7 9 12 12 13 9 5 2 1 2 1 2 6 8 9 9 7 6 5 5 7 5 6 4 2 7 5 4 3 3 2 2 4 6 4 5 4 4 6 4 2 2 4 4 4
29 29 29 29 29 28 28 28 28 28 28 28 28 27 25 22 20 18 12 8 7 7 7 6 4 2 2 0 9 11 6 5 6 7 5 2 2 3 6 9 10 10 11 11 13 15 16 17 9 3 4 1 1 2 2 5 6 5 5 5 4 3 2 8 5 5 4 2 8 5 4 3 4 5 4 2 4 4 5 3 3 3 4 3 2 3 3 2
30 30 30 29 29 29 29 28 28 29 28 29 28 27 25 22 20 16 9 6 6 6 6 4 3 1 1 5 12 10 8 8 9 14 9 6 7 7 9 11 12 13 14 16 18 16 17 17 8 3 4 2 2 3 3 4 2 4 3 3 3 2 1 8 7 7 4 2 7 5 3 5 5 6 5 1 1 3 5 4 3 2 2 4 4 3 2 2
31 31 31 30 30 29 29 29 29 29 29 29 29 27 25 21 19 13 6 5 4 5 5 4 3 1 1 8 12 9 6 5 10 19 16 12 12 8 11 15 16 17 17 19 20 17 16 13 4 2 3 1 4 4 3 3 3 2 4 1 1 2 1 6 9 10 6 2 7 4 2 4 5 6 4 2 1 2 5 4 4 3 2 3 4 3 3 3
32 32 32 31 30 29 29 29 29 29 29 29 29 27 24 21 16 9 5 4 4 4 3 2 0 2 0 6 8 7 5 7 12 18 17 14 14 13 12 14 16 18 20 20 21 18 13 7 2 3 2 0 3 5 3 2 2 3 3 2 2 4 3 4 5 7 6 5 6 5 2 2 5 5 3 2 1 2 4 4 4 3 1 2 3 3 3 4
33 33 32 31 30 30 29 29 29 29 29 29 29 26 22 17 11 5 4 3 3 4 3 1 1 1 3 7 6 5 6 10 14 15 15 15 16 17 12 6 9 13 16 17 18 12 5 2 2 2 1 1 2 4 3 2 3 3 1 3 3 4 4 3 1 2 5 6 4 3 4 4 5 3 3 3 2 2 4 4 4 3 2 2 3 3 3 4
34 34 32 32 31 30 29 29 29 29 29 29 28 25 18 10 4 2 5 6 4 0 2 2 1 1 3 6 4 5 7 10 15 15 15 15 16 18 13 5 5 4 4 6 8 4 2 1 1 2 2 1 3 4 3 7 5 5 4 3 3 3 4 5 3 3 5 5 4 5 2 4 5 2 1 3 3 4 5 4 3 3 3 3 3 4 4 4
34 34 33 32 31 30 29 29 28 29 29 28 25 19 9 6 5 6 8 7 4 1 2 2 3 2 1 4 5 9 11 10 14 13 11 14 16 15 11 6 4 2 2 2 4 2 2 1 2 3 4 4 7 6 9 12 8 10 8 6 6 5 3 5 5 6 7 7 4 5 3 4 4 3 4 4 3 4 3 1 2 3 2 3 3 4 5 5
35 34 33 32 31 30 29 28 27 27 28 27 22 12 4 4 4 3 3 3 4 5 6 5 8 5 5 5 6 9 10 5 7 8 8 13 13 7 4 2 1 2 0 2 5 3 2 1 4 7 9 9 9 9 14 15 6 10 9 6 8 6 3 5 6 6 8 7 3 5 4 5 5 6 6 4 3 4 3 3 3 4 3 3 4 4 6 7
35 34 33 32 31 29 28 27 26 25 24 19 15 7 1 0 2 3 4 3 6 9 9 9 11 10 10 9 11 11 5 0 1 4 7 11 10 4 2 2 1 2 3 4 4 4 1 3 8 9 10 10 7 9 16 14 5 10 9 7 7 4 2 3 5 7 6 5 4 4 4 5 6 7 6 4 5 6 6 6 5 6 4 4 4 5 7 5
36 34 33 32 30 29 27 25 23 20 15 12 9 3 2 3 4 8 6 4 7 9 11 12 12 12 14 15 20 18 4 2 4 4 5 7 6 4 3 3 4 4 4 2 2 4 4 6 11 10 9 10 9 10 12 7 7 12 9 7 5 3 3 2 1 6 4 4 4 5 5 5 6 7 5 6 8 6 7 7 6 7 6 5 5 5 5 4
37 35 34 31 30 28 25 24 20 12 10 14 10 4 8 13 12 12 5 3 7 6 8 9 10 9 9 11 18 16 4 3 4 6 6 7 4 5 4 4 6 4 3 2 3 3 4 6 11 11 10 10 11 9 4 2 6 9 8 6 6 6 5 0 2 5 3 3 5 5 4 2 2 4 5 8 8 4 5 6 4 5 7 7 6 5 5 4
37 36 33 31 30 26 24 23 12 4 12 17 12 9 17 17 10 8 4 1 5 6 6 9 8 5 7 8 9 8 4 4 4 4 8 9 3 3 4 4 4 2 4 5 6 6 7 10 11 10 11 10 9 10 3 4 3 6 10 8 8 9 6 4 4 5 2 4 5 6 5 2 0 4 5 6 6 4 4 4 3 5 4 3 4 4 4 4
38 36 32 30 28 24 23 16 2 4 17 14 8 13 19 14 7 5 3 1 3 5 4 7 5 6 10 8 6 7 3 3 6 6 8 12 7 3 3 3 3 3 7 7 6 6 8 12 9 9 11 8 6 7 2 4 3 1 9 12 13 12 8 7 7 5 5 3 3 5 4 2 3 3 5 4 3 4 4 5 5 5 3 2 4 4 2 2
38 35 31 28 25 24 18 6 2 12 16 7 6 15 15 12 14 8 3 3 3 4 2 3 3 6 9 6 5 4 3 4 9 8 9 14 12 6 3 2 1 4 7 4 3 3 6 8 6 6 9 8 5 6 3 4 3 2 7 14 14 12 10 11 10 6 4 2 5 4 4 1 3 3 5 4 5 5 4 6 6 4 4 4 4 4 4 3
38 34 30 25 21 21 12 3 10 13 6 4 10 15 13 13 16 8 3 3 3 2 3 1 0 4 5 6 7 6 3 5 5 5 10 15 11 4 4 3 0 4 3 1 0 2 4 5 6 5 6 6 5 6 4 5 5 2 8 14 14 13 13 14 11 5 3 4 2 0 3 4 2 4 6 4 6 5 4 6 6 5 5 5 4 4 4 4
38 32 28 23 17 15 10 8 13 7 2 8 12 12 12 13 13 6 3 2 2 1 2 1 1 3 3 5 7 5 4 2 1 2 9 16 10 3 4 5 3 6 2 3 2 5 3 2 6 5 5 5 4 3 3 5 3 4 14 16 14 15 13 11 8 4 2 5 2 4 2 4 2 4 4 3 5 5 5 7 6 6 7 6 6 5 4 4
36 30 26 22 15 10 7 8 9 4 5 10 10 11 12 11 8 4 3 1 1 2 1 1 1 2 1 2 3 4 4 1 0 3 4 11 8 3 4 6 5 5 4 4 5 7 4 3 5 5 5 5 3 1 3 5 2 4 14 14 8 7 7 6 5 4 4 5 1 6 1 4 2 3 3 2 3 5 6 6 6 7 8 7 6 5 4 4
33 27 24 21 13 4 4 9 8 3 7 11 11 12 11 7 5 4 3 1 2 2 0 0 1 3 5 2 1 4 4 1 2 2 3 4 2 3 2 3 3 1 3 1 4 8 6 3 4 4 5 5 3 1 1 4 5 6 7 7 6 6 6 5 3 4 5 2 3 6 2 4 1 3 5 4 4 8 7 4 4 7 8 7 6 6 5 4
30 24 22 19 10 3 4 6 2 2 9 12 13 10 6 4 4 3 1 0 1 2 1 1 2 3 7 5 3 3 3 2 2 1 2 2 2 2 2 1 2 1 3 4 3 6 6 4 3 4 5 4 1 1 2 3 7 7 4 4 5 3 4 4 5 4 4 1 5 6 2 5 2 3 6 6 5 10 9 7 8 10 9 7 6 6 6 5
26 20 18 15 9 9 9 3 0 5 8 10 10 5 4 4 2 1 1 2 2 3 2 2 3 4 6 6 4 4 3 1 3 3 4 3 3 2 3 3 3 1 3 3 2 5 6 4 5 5 6 3 1 3 5 5 5 6 4 4 5 2 4 3 3 2 2 3 5 4 3 3 2 5 6 8 8 10 10 9 11 12 10 8 7 6 5 5
23 17 13 10 9 10 10 5 4 6 6 7 7 3 4 4 0 3 3 2 2 4 3 3 5 5 7 5 3 3 4 2 5 3 4 3 3 4 4 4 6 4 2 4 1 2 4 7 6 4 5 3 3 1 3 2 2 4 5 4 4 2 2 2 1 2 1 3 2 4 3 1 3 4 4 10 12 11 9 9 11 12 11 10 8 7 6 5
20 14 10 9 9 9 8 5 3 2 3 6 5 4 4 2 2 3 2 2 2 2 4 5 5 6 7 5 4 4 3 3 5 3 4 3 3 3 4 4 5 5 2 2 1 3 2 5 5 4 3 4 6 6 6 5 3 3 5 5 5 4 4 4 4 2 3 2 1 3 1 1 1 4 3 9 9 7 7 7 9 10 10 10 8 7 6 5
17 11 10 10 9 6 4 5 4 1 3 4 4 4 3 1 3 4 3 3 4 1 2 2 4 6 5 4 4 6 4 3 5 3 3 4 4 5 4 4 6 5 4 2 2 3 4 5 7 5 4 6 7 6 6 6 2 4 2 5 2 4 5 4 3 4 4 3 1 0 1 2 2 3 1 7 7 7 9 9 11 10 9 9 7 7 6 5
14 7 7 9 8 4 1 6 9 5 2 4 5 2 1 3 2 2 2 3 5 3 2 2 2 4 4 3 3 5 4 2 3 3 2 3 4 5 5 5 7 7 6 4 3 2 4 5 7 4 4 7 9 7 7 6 3 2 2 2 4 4 8 5 2 2 5 4 1 1 1 3 1 3 2 6 8 7 9 10 11 11 10 9 7 7 6 5
15 9 5 7 7 3 1 8 12 7 3 5 4 1 3 3 3 3 3 6 9 5 1 1 1 3 3 3 3 5 5 1 2 4 2 1 2 5 7 5 7 11 10 8 4 2 4 5 8 4 5 9 7 6 7 7 6 4 2 5 3 3 5 5 4 2 4 3 2 1 3 3 1 0 3 3 8 8 9 10 10 10 9 9 7 7 6 6
14 10 6 6 5 4 5 9 11 6 4 5 1 3 3 3 4 4 6 9 10 4 3 1 1 2 3 3 4 5 7 4 4 5 3 2 3 6 8 5 6 12 12 10 4 2 4 3 8 5 5 7 1 5 4 5 2 3 4 4 3 2 1 1 4 3 3 2 2 1 2 2 3 5 6 7 9 10 9 9 11 10 9 8 7 6 7 7
8 6 4 1 5 7 8 10 7 3 5 4 1 3 2 4 6 7 8 9 7 4 2 0 0 0 3 4 4 4 7 6 6 5 3 4 4 5 7 5 6 11 12 11 7 4 3 2 5 5 3 3 2 4 5 6 6 2 1 1 2 3 3 2 2 4 4 4 2 1 0 2 4 6 10 12 11 12 11 9 10 10 9 9 7 7 7 7
4 3 2 2 8 10 11 9 3 4 3 1 2 3 3 5 6 7 9 9 5 4 3 3 2 1 3 3 3 3 5 6 7 5 3 5 4 5 6 6 5 9 11 12 8 3 1 2 3 6 5 5 3 1 6 6 6 2 1 1 2 1 2 2 1 2 5 5 3 2 1 5 6 5 11 13 11 12 12 10 9 9 10 9 9 8 7 6
3 3 1 5 13 15 12 5 3 2 1 1 3 3 4 4 6 8 9 9 5 3 5 6 5 2 2 3 5 3 2 5 6 4 2 4 5 3 5 8 7 6 7 8 6 3 2 3 3 4 5 3 3 5 3 5 6 5 4 4 4 3 3 3 1 2 3 5 4 4 3 7 6 4 9 10 11 12 13 12 10 8 10 10 8 8 6 6
2 2 1 7 16 15 8 2 2 1 2 3 3 4 5 4 5 8 8 8 5 3 5 6 6 4 4 5 6 6 1 4 4 4 4 4 5 5 6 6 8 6 7 5 6 5 3 3 2 4 4 3 8 8 6 8 7 4 4 4 4 4 4 5 3 2 2 4 2 4 3 6 6 3 6 9 12 13 12 12 11 9 9 9 7 6 6 6
2 3 5 2 15 13 6 3 3 2 2 5 5 5 5 3 4 7 7 7 5 4 5 5 5 6 5 4 5 8 5 1 0 1 3 3 3 8 9 5 7 5 5 4 4 4 1 3 2 4 5 4 7 7 6 5 3 2 3 2 5 4 3 5 5 3 4 4 3 3 1 5 6 1 5 9 11 10 10 11 12 10 8 8 8 7 7 7
2 4 6 4 9 10 4 2 3 5 5 7 8 6 4 2 4 5 5 5 5 5 4 4 5 4 4 4 3 6 7 3 4 6 4 3 4 7 6 6 8 4 2 3 3 2 2 1 3 2 4 6 8 7 6 5 2 1 3 3 5 4 7 7 4 4 3 6 7 6 3 6 5 2 7 9 10 10 10 11 12 11 10 8 8 8 7 7
3 3 3 7 3 1 1 0 3 5 6 8 7 6 4 3 4 5 5 4 4 5 3 3 5 4 5 7 6 7 8 5 3 5 6 5 7 8 6 2 6 5 3 4 5 4 2 2 4 4 2 3 3 3 2 3 4 3 5 7 5 6 9 7 4 5 3 5 6 5 5 5 2 5 9 10 12 12 10 10 10 10 10 9 7 7 7 6
3 1 3 6 7 5 1 2 4 3 5 7 5 4 4 3 4 6 6 4 5 7 4 2 6 7 9 10 8 7 9 8 5 6 7 7 7 6 9 7 5 5 4 7 7 4 3 1 3 6 6 6 7 7 4 1 3 5 9 11 7 4 7 8 5 4 6 6 4 4 5 5 4 6 9 10 12 13 10 10 9 8 9 8 7 7 6 6
2 2 4 4 4 4 4 4 5 4 6 6 4 3 3 4 4 6 5 3 4 6 4 3 7 9 9 9 6 5 8 9 10 11 9 8 7 8 11 8 7 9 10 5 4 4 5 2 1 5 5 7 7 7 5 2 3 6 8 9 8 7 1 8 6 5 7 8 4 7 5 9 7 7 10 10 11 12 10 10 10 9 9 8 7 7 6 6
3 0 3 4 2 2 3 5 7 9 11 9 5 2 2 4 4 4 4 4 3 5 4 4 7 8 7 7 4 4 8 9 10 11 9 9 9 10 11 8 6 12 13 7 2 4 6 1 3 3 3 7 6 7 4 2 4 7 7 7 5 6 3 5 7 8 10 9 6 6 7 9 8 8 10 11 11 11 10 10 10 10 9 9 9 8 7 7
4 1 3 4 2 2 4 7 9 9 10 9 6 2 3 4 2 2 3 3 5 6 5 4 7 9 9 7 4 4 5 6 6 8 7 9 8 7 7 7 7 10 10 7 5 2 4 2 3 1 3 7 7 6 5 5 5 6 7 5 2 7 5 3 6 8 8 7 8 11 10 7 7 10 11 10 10 10 9 9 10 11 11 10 9 8 7 7
3 2 3 4 3 4 5 6 7 5 5 8 7 5 3 2 1 3 2 2 3 4 5 4 7 12 11 7 6 5 3 2 3 5 6 8 7 5 3 2 4 9 9 6 5 3 1 3 3 3 4 8 9 8 8 6 3 6 9 7 4 9 7 7 8 6 6 6 10 13 9 3 3 8 10 8 8 10 10 10 10 10 10 10 9 8 7 7
6 5 5 3 3 5 4 5 6 3 3 6 6 7 6 2 0 2 2 1 2 2 3 5 7 10 9 7 7 7 6 5 5 6 6 6 5 3 2 3 2 6 7 5 3 3 1 1 2 5 4 6 7 8 10 6 5 10 11 9 5 5 4 4 5 5 7 9 11 11 7 4 4 6 9 9 9 11 11 10 9 8 9 10 9 8 8 8
12 7 7 3 2 4 5 5 6 4 3 5 7 8 8 7 5 3 2 3 3 2 4 4 5 6 5 7 9 8 8 8 7 7 6 6 7 6 5 6 4 3 3 3 2 1 2 1 1 3 2 5 6 6 7 5 7 7 5 5 3 4 3 3 2 3 10 13 11 8 7 6 7 9 11 10 11 11 10 9 8 8 8 9 8 8 8 8
Wind_Direction
359 357 356 358 358 357 357 355 356 356 355 355 355 355 355 356 356 354 351 347 344 340 334 326 318 315 312 322 324 321 323 315 311 296 250 261 268 237 217 224 205 167 172 173 168 157 159 188 206 184 179 202 217 229 182 168 144 125 82 85 68 145 195 213 201 202 139 134 167 148 105 112 99 318 313 48 32 316 334 18 56 61 60 103 135 143 132 136
357 354 354 355 356 355 355 353 354 354 353 353 355 354 354 355 355 353 351 348 345 342 339 330 320 320 323 332 329 327 326 317 312 281 251 253 257 228 217 229 227 201 184 177 181 174 162 186 195 175 165 210 221 200 169 166 162 180 103 86 178 206 180 204 184 181 138 132 156 149 146 143 123 313 346 52 4 16 57 38 59 67 62 82 118 131 124 128
355 353 351 352 353 353 352 352 353 353 352 352 353 352 353 354 354 353 350 348 345 343 341 334 326 329 338 338 333 333 328 325 313 269 260 249 240 233 230 239 234 226 220 204 196 190 184 185 184 172 170 232 227 177 174 159 160 178 106 83 252 187 156 223 200 181 157 131 136 130 129 97 31 4 6 61 23 30 58 52 75 84 94 94 106 122 122 122
353 351 349 348 349 350 349 349 350 351 350 351 350 351 351 351 353 352 349 347 343 342 341 336 335 341 349 342 338 337 330 338 276 250 274 231 223 222 227 237 237 242 245 228 210 201 200 196 187 184 186 230 232 166 182 164 162 148 120 164 186 152 135 208 209 178 151 138 131 111 96 75 354 7 46 73 57 27 355 251 125 121 114 110 98 102 118 114
349 348 347 346 345 346 347 347 348 348 349 349 348 349 349 350 351 351 348 345 341 340 339 337 342 350 352 345 346 336 336 48 242 246 260 179 186 195 214 226 234 244 239 219 213 209 220 221 199 197 199 213 213 171 198 185 172 97 73 155 159 158 159 178 183 153 141 129 118 119 122 134 246 35 71 92 101 219 250 160 153 146 131 124 105 87 102 92
346 345 344 343 342 343 344 344 345 345 346 346 346 346 347 348 348 349 347 343 340 336 335 335 345 355 348 345 352 339 352 172 272 261 246 259 217 221 216 219 230 236 230 213 207 222 232 222 194 201 208 193 193 194 199 189 165 106 108 152 161 170 159 159 160 145 138 127 132 149 143 127 100 71 89 117 169 223 206 158 122 144 147 128 104 102 95 79
345 344 343 341 341 341 341 342 342 342 343 343 344 344 344 345 347 348 345 341 338 332 330 333 345 356 349 350 350 6 84 259 275 261 250 263 219 223 212 215 221 224 227 200 175 196 208 223 225 198 186 164 191 208 184 163 146 127 146 166 168 168 156 155 153 146 144 139 152 142 106 108 117 106 119 179 239 212 156 146 113 107 147 128 116 130 120 126
346 346 343 341 340 339 339 339 339 339 340 340 341 341 341 343 344 345 342 339 333 328 328 334 347 0 357 347 342 10 245 255 262 223 216 215 194 205 192 195 207 219 234 227 197 191 180 246 246 187 140 143 185 204 165 142 136 136 148 164 164 158 154 146 141 143 137 130 124 108 95 153 157 122 130 235 262 185 129 129 110 110 149 138 141 148 130 160
347 346 345 343 340 339 339 338 338 337 337 338 337 338 339 340 342 343 339 333 329 324 325 336 348 6 4 333 62 1 264 232 199 177 190 195 186 189 186 191 204 216 240 263 247 217 147 276 297 352 41 107 175 191 172 145 145 159 151 156 156 149 146 134 139 149 134 132 131 117 100 254 201 135 134 207 223 164 117 111 81 103 146 153 149 153 145 157
348 348 346 343 341 339 338 337 337 335 335 335 334 334 335 338 339 340 335 327 324 318 322 338 346 8 10 0 99 175 257 188 171 189 192 196 189 184 191 200 206 215 240 273 264 227 188 258 310 331 66 83 159 186 182 144 143 158 152 148 147 142 142 138 147 151 124 148 156 134 163 240 207 154 169 203 184 138 109 111 74 89 132 159 150 152 148 151
349 349 347 344 342 339 337 337 335 334 334 332 331 330 332 335 336 337 330 321 316 314 324 336 345 2 9 69 115 222 230 176 184 195 183 190 192 198 204 208 210 220 240 266 271 264 264 288 322 6 45 40 39 184 105 121 128 137 136 124 130 133 139 150 151 155 134 167 186 150 148 242 214 177 218 189 153 134 134 145 117 94 116 160 150 145 135 147
350 349 347 345 342 339 337 336 334 333 332 330 328 326 329 332 334 333 324 313 309 308 322 335 350 0 16 97 200 229 206 174 191 167 173 193 181 206 211 217 224 234 242 248 278 289 300 308 333 7 308 49 60 348 88 124 126 122 122 109 121 126 148 176 164 167 174 178 190 160 63 351 334 280 247 150 143 135 142 159 124 111 142 192 144 131 119 138
350 349 347 344 341 339 337 335 333 331 329 328 325 323 326 329 331 329 317 305 301 301 318 338 349 353 23 233 236 244 249 253 228 188 195 224 203 223 218 223 235 250 251 243 266 285 292 296 305 310 271 208 140 186 92 94 111 116 112 103 120 90 158 190 174 161 182 184 182 156 46 303 294 281 265 144 151 138 130 154 116 110 156 156 112 110 113 116
349 347 345 343 341 338 336 334 331 329 328 325 323 321 323 327 327 321 308 295 293 298 311 325 319 344 68 263 266 282 290 278 239 213 211 206 213 237 233 232 239 247 252 249 259 273 276 280 281 278 268 214 155 127 55 32 73 121 110 79 122 101 187 189 173 158 168 188 172 131 85 235 263 261 260 13 171 160 129 136 120 105 131 130 123 128 163 188
348 346 344 342 340 337 335 333 331 329 327 324 321 320 323 325 321 311 290 274 278 286 301 314 276 200 35 278 281 307 306 266 224 215 214 208 211 231 236 235 238 244 252 252 255 262 266 276 285 263 277 197 132 117 59 16 2 85 124 24 87 110 151 166 166 176 172 153 176 148 97 240 262 246 250 7 293 169 125 136 136 125 101 132 142 146 192 234
347 345 343 341 339 336 334 332 331 329 326 322 319 320 324 322 313 299 262 251 256 269 298 0 171 149 69 279 291 310 272 223 211 209 212 215 216 228 239 237 239 246 251 253 258 263 264 277 275 218 237 169 144 128 81 58 335 336 123 171 170 119 135 147 163 197 171 136 180 187 142 235 263 232 227 275 251 122 138 169 164 139 118 180 169 162 198 238
346 345 342 340 338 336 334 333 332 330 326 322 320 323 327 321 305 276 239 219 218 250 258 287 15 58 262 278 305 294 243 219 218 219 223 224 223 234 242 243 244 246 250 258 264 263 252 252 257 251 220 157 169 121 92 230 242 284 131 145 171 139 152 165 154 199 136 115 155 152 145 213 256 226 195 241 218 162 178 195 196 164 167 224 196 191 212 223
346 343 341 339 337 335 334 333 332 331 327 321 323 327 331 335 326 179 154 153 146 203 274 280 338 45 261 270 281 262 259 239 230 234 234 223 223 234 239 247 266 276 297 289 272 256 150 209 283 313 316 167 181 125 156 230 203 182 178 127 149 162 170 186 172 160 124 88 110 116 129 233 263 286 222 248 219 200 203 196 214 191 182 232 217 213 236 236
345 343 341 338 335 334 333 333 333 333 327 322 328 333 341 21 53 110 126 135 125 92 269 233 179 164 266 252 255 270 278 251 220 224 225 210 215 230 238 247 273 317 5 351 314 309 157 212 354 291 275 216 200 185 201 224 192 161 161 132 159 176 185 188 169 165 139 97 115 149 166 211 228 245 229 235 228 218 215 179 230 225 205 229 219 222 244 245
345 342 340 337 335 333 332 332 334 333 328 326 335 349 16 31 35 79 109 155 189 223 243 217 196 230 298 286 292 293 283 249 190 198 202 196 198 219 247 241 338 359 305 239 283 298 139 204 262 234 244 233 211 210 223 232 197 137 133 138 172 167 167 184 158 161 143 109 154 181 164 192 208 225 220 209 227 234 214 200 232 238 226 218 215 227 239 244
345 343 340 336 333 332 331 332 334 333 329 329 341 1 53 42 16 326 304 254 227 221 235 237 216 231 259 268 292 298 293 19 208 206 190 182 167 163 249 174 97 306 249 236 268 307 19 259 256 245 252 257 241 233 239 241 183 130 134 155 175 150 143 165 143 166 150 104 171 175 145 193 210 220 217 178 201 229 212 201 213 219 221 222 223 233 240 252
345 343 339 336 333 331 330 332 335 333 333 343 352 6 240 275 324 322 307 294 273 220 219 246 239 244 250 254 268 270 268 72 292 279 201 171 147 168 219 150 155 224 253 269 325 317 309 267 269 275 271 273 269 246 240 233 138 131 149 160 155 123 109 47 86 175 157 100 177 169 140 187 207 206 208 188 201 224 210 203 201 194 196 210 219 229 239 248
346 343 340 336 332 330 330 333 334 333 347 346 329 281 310 319 321 325 320 292 290 239 204 232 239 248 248 253 257 247 211 160 243 275 213 170 154 178 167 154 181 216 261 210 205 252 271 265 271 278 278 285 287 274 264 65 103 138 158 146 148 163 146 138 269 190 167 111 152 138 107 144 184 182 210 213 213 227 210 211 213 191 194 202 202 202 209 205
345 343 341 335 332 330 330 333 330 333 343 331 301 302 338 338 325 325 332 239 283 272 220 213 220 234 232 242 240 207 180 187 198 249 206 172 152 161 165 174 171 219 254 221 219 228 247 259 265 279 286 287 288 289 310 54 50 156 158 142 157 177 164 165 188 170 110 54 113 110 71 11 196 171 208 223 220 217 192 188 212 226 226 196 169 182 202 202
345 344 340 336 333 329 330 336 348 339 334 320 292 329 350 356 347 345 16 45 290 285 237 203 201 236 239 229 203 184 178 207 205 213 188 174 168 146 187 193 142 214 241 235 238 242 253 260 265 280 283 284 286 283 265 95 14 168 159 157 161 165 157 150 152 129 78 39 184 141 85 320 283 209 206 207 181 182 175 178 200 224 236 134 148 165 164 163
345 343 340 338 335 331 334 349 349 334 329 305 309 334 346 358 353 357 66 45 304 265 187 166 169 215 234 208 170 149 119 240 229 198 180 190 189 160 179 226 136 212 222 225 241 251 255 262 279 286 287 300 296 270 264 104 68 7 152 155 154 150 147 153 152 132 118 187 215 177 119 179 273 238 224 202 155 162 170 186 194 190 172 152 151 146 130 136
344 343 340 338 338 336 337 315 325 333 323 303 327 335 342 351 352 359 76 39 316 224 161 217 164 176 201 184 154 118 139 254 252 184 184 198 195 147 182 220 226 221 211 104 302 265 259 292 321 319 318 312 261 247 301 73 85 71 136 144 149 150 155 164 159 140 162 155 126 158 113 123 206 229 225 186 151 169 183 194 190 155 153 155 146 144 145 149
344 344 339 336 338 331 313 297 318 327 304 325 334 340 342 343 350 15 93 51 291 205 151 223 230 182 194 166 147 152 213 228 7 234 194 190 187 112 186 208 192 227 240 101 223 266 261 302 304 306 329 312 238 237 7 62 65 137 145 151 157 156 159 164 149 108 98 106 61 303 62 98 255 256 231 173 152 187 206 207 193 149 151 159 149 151 153 146
343 344 338 333 332 320 297 290 293 295 335 340 347 345 339 343 2 59 94 67 246 255 173 145 206 201 187 111 141 219 247 100 126 261 172 181 193 109 181 207 190 236 261 164 214 266 260 224 255 277 300 274 234 262 68 81 35 125 144 150 136 124 116 102 110 93 55 78 179 262 87 101 269 262 201 192 185 198 207 214 192 152 155 159 150 153 156 141
343 344 336 329 327 314 284 285 269 290 354 351 348 343 340 355 43 68 31 61 177 267 313 67 274 155 138 141 232 245 245 314 287 287 91 171 189 61 202 198 131 213 289 206 222 258 263 262 257 252 261 245 205 222 166 104 91 89 110 118 85 57 63 66 65 79 63 41 240 244 187 118 246 254 198 205 203 182 181 195 169 150 154 156 152 156 156 147
343 343 332 321 315 243 253 287 265 354 353 345 339 343 360 24 70 83 32 169 198 269 225 200 245 141 144 171 216 233 232 295 289 154 132 167 98 39 305 11 65 37 352 345 307 289 306 332 284 253 262 268 15 351 317 47 85 92 78 84 83 25 28 39 359 37 81 267 251 238 166 102 124 244 215 214 196 169 166 165 157 154 155 155 156 155 151 147
344 342 328 310 285 238 233 233 286 317 331 342 343 0 66 53 42 134 228 303 294 229 207 190 204 171 163 181 211 211 185 262 253 174 152 159 144 186 210 181 180 94 336 288 310 323 320 305 278 282 285 271 38 346 332 359 43 87 95 78 82 22 9 38 346 4 121 252 243 188 115 84 219 244 213 188 175 169 168 163 157 157 156 156 157 153 150 148
344 340 329 310 284 256 246 253 276 287 317 352 3 42 84 74 246 231 230 271 224 190 162 165 191 173 157 176 235 209 169 228 251 200 156 142 139 206 236 208 168 142 218 228 197 330 310 305 296 292 294 252 168 257 302 317 30 102 142 126 110 129 91 100 289 318 226 269 265 134 105 11 280 285 211 167 167 172 167 158 155 152 153 156 153 150 152 155
344 336 326 309 297 283 267 257 243 266 347 7 32 66 58 61 242 259 253 263 259 175 151 166 174 153 156 186 216 184 163 238 239 181 148 118 107 208 255 247 184 151 152 201 185 175 198 297 273 201 240 237 189 198 202 179 152 177 174 136 136 171 153 162 197 192 187 227 11 65 63 183 205 286 224 160 157 153 135 136 138 137 144 146 143 148 151 156
346 328 313 304 303 305 269 211 179 142 21 35 59 69 57 245 272 326 326 299 322 1 158 165 136 144 183 217 218 193 173 219 226 182 156 157 168 196 203 221 209 168 135 165 228 182 175 243 249 227 225 211 204 207 175 135 161 239 152 101 170 199 145 137 166 162 146 129 82 28 232 210 199 296 308 130 125 112 114 124 125 126 135 136 139 152 153 158
351 337 315 299 297 322 302 176 160 152 93 71 63 56 200 222 247 303 293 293 302 304 325 325 116 148 209 239 250 218 185 177 203 183 195 189 189 208 198 203 203 179 157 173 219 193 175 246 269 289 279 224 209 199 165 143 173 257 88 142 234 167 126 114 97 55 79 101 255 250 231 286 332 351 349 119 115 114 127 131 129 132 135 136 145 157 157 162
352 353 321 281 278 291 154 152 148 144 91 80 81 242 239 245 244 247 289 309 293 281 60 342 200 158 202 223 244 213 170 115 206 188 220 222 218 223 211 214 201 189 182 181 209 198 159 262 278 256 266 259 218 179 184 177 153 124 157 211 234 71 86 95 106 57 63 103 275 254 188 248 97 126 266 150 128 142 147 136 134 138 140 143 151 158 162 165
342 343 312 272 244 200 158 142 142 135 71 72 60 259 243 254 262 280 316 315 299 291 84 63 236 166 185 217 252 205 155 151 210 199 187 203 250 227 203 211 207 200 194 177 195 249 151 261 287 240 238 273 230 132 192 237 197 152 185 179 112 79 335 49 129 154 120 127 266 287 216 229 178 188 211 184 164 163 155 142 144 149 149 150 151 156 159 158
344 348 326 258 178 176 161 146 139 90 61 63 314 269 252 265 276 299 328 331 321 334 35 72 44 217 208 214 242 204 156 165 197 196 163 178 239 238 201 201 212 209 194 166 180 236 164 169 290 274 275 329 21 117 167 245 280 302 339 30 112 147 172 174 158 153 135 144 193 202 148 251 230 200 192 191 178 162 155 152 156 157 153 151 149 154 160 160
4 10 307 178 151 156 154 148 105 51 75 126 225 252 287 286 290 316 349 359 353 358 344 307 319 310 242 241 254 214 162 169 186 189 177 179 210 254 221 193 202 210 189 170 180 211 156 166 256 289 337 25 10 177 164 203 239 250 355 268 208 154 142 149 154 133 126 136 160 140 169 256 255 200 191 190 170 160 163 161 163 159 149 149 152 158 168 169
1 24 254 164 146 145 140 123 19 62 129 291 242 250 290 290 312 336 355 4 11 29 358 331 322 326 337 345 326 303 176 177 193 180 172 197 204 252 237 195 187 186 164 167 187 181 176 188 205 293 337 20 264 250 198 216 220 177 175 205 193 173 135 113 24 314 99 124 159 149 176 253 259 197 192 180 159 166 168 158 161 158 146 148 155 161 164 157
16 27 237 158 155 150 121 75 307 201 197 277 245 251 283 295 333 348 351 359 13 32 8 349 342 354 16 13 340 329 336 184 215 192 183 212 198 210 241 205 174 156 133 153 205 202 169 128 116 281 276 239 253 265 262 247 228 185 197 202 166 153 132 125 169 230 104 105 128 120 152 247 256 211 177 162 159 168 166 155 152 146 143 144 145 146 135 126
50 295 304 172 173 165 77 15 291 342 261 261 270 276 285 307 348 353 348 353 10 17 8 350 348 10 19 4 346 345 352 128 72 272 228 248 221 227 238 190 138 125 114 134 200 221 201 104 91 292 295 301 295 302 302 272 214 200 261 212 172 184 156 144 162 149 127 138 132 95 149 252 271 279 138 146 149 151 150 147 140 135 137 136 132 127 116 114
339 260 312 348 186 178 66 2 300 341 308 303 320 316 316 346 0 359 346 347 9 8 352 333 344 9 359 339 7 2 350 15 35 7 350 344 315 287 261 168 134 107 104 155 174 193 250 184 97 29 323 334 337 340 344 345 9 239 273 246 204 164 106 112 125 95 122 180 162 142 192 251 284 46 110 125 124 123 132 137 134 135 136 132 127 122 116 117
331 227 287 345 355 151 105 245 318 327 312 316 317 314 335 343 347 1 347 342 18 14 344 318 336 350 358 3 22 14 359 11 20 4 18 9 337 334 342 66 116 96 111 151 144 131 163 175 113 120 199 256 282 272 286 329 339 325 300 288 246 159 125 121 121 111 154 194 161 148 199 245 320 86 114 120 117 119 127 131 131 133 133 132 129 123 122 122
4 34 314 336 2 13 316 301 351 339 317 325 308 306 358 356 329 349 356 358 10 6 358 345 351 3 12 12 19 9 357 7 14 11 22 9 342 336 345 3 59 54 66 119 125 114 105 101 128 142 174 203 215 225 227 286 337 308 295 295 282 208 148 120 114 151 172 168 179 226 197 159 121 117 126 127 127 130 134 133 130 129 128 128 126 125 125 124
31 22 6 345 334 352 338 335 9 356 316 316 291 277 10 19 338 341 354 351 351 357 5 14 12 18 11 3 16 5 350 11 22 10 6 2 348 340 344 1 46 24 16 68 119 106 80 12 226 155 196 227 227 243 258 273 261 260 279 292 295 290 200 132 148 185 154 141 203 251 190 144 153 158 143 137 137 137 139 140 138 137 134 130 128 127 123 122
29 328 10 3 303 327 338 319 331 329 318 315 299 267 50 39 15 352 331 316 343 15 24 5 360 12 11 6 23 1 353 15 19 0 355 357 350 349 347 344 12 17 11 3 353 97 100 275 236 166 246 263 258 263 268 273 254 255 276 285 299 325 315 163 165 166 150 151 190 202 169 155 162 161 151 150 150 146 147 148 142 138 135 132 132 131 132 133
23 1 349 3 330 269 274 288 298 307 322 336 339 356 56 56 24 297 287 327 353 9 31 12 337 343 1 22 45 28 18 27 6 343 344 348 344 351 351 332 342 6 11 359 340 57 109 244 244 124 321 303 302 303 333 351 308 301 310 295 86 64 44 107 132 143 140 141 152 153 157 167 163 159 159 159 153 145 140 140 137 136 137 136 136 138 142 142
19 342 338 350 324 291 271 291 306 304 339 4 3 347 0 60 2 267 267 16 353 339 5 353 323 331 347 10 31 27 43 79 347 324 328 338 340 348 350 319 328 340 349 2 343 335 33 263 265 67 20 316 314 326 340 343 348 29 9 346 72 88 80 90 110 118 92 104 142 142 137 155 165 151 145 139 136 134 135 140 141 140 140 137 136 139 138 133
350 312 335 333 293 318 317 316 332 338 1 14 0 331 325 343 333 263 284 305 224 247 323 317 321 332 337 358 12 354 341 346 332 312 308 308 301 296 284 269 322 337 336 353 345 325 12 268 294 59 47 297 303 330 329 334 60 57 23 350 7 72 94 105 134 151 131 133 144 138 137 174 180 140 127 127 135 137 139 143 138 136 139 137 138 140 133 126
355 334 351 353 261 330 343 329 340 7 26 359 339 329 339 355 3 9 344 299 257 257 271 277 315 324 321 353 355 329 318 322 312 299 293 283 277 268 252 261 274 278 282 310 321 293 110 130 275 77 89 276 298 331 329 2 51 38 343 306 335 37 52 42 37 151 143 140 147 160 179 186 162 139 132 139 147 145 146 148 142 141 141 138 139 136 129 130